TimeEST,TemperatureF,Dew PointF,Humidity,Sea Level PressureIn,VisibilityMPH,Wind Direction,Wind SpeedMPH,Gust SpeedMPH,PrecipitationIn,Events,Conditions,WindDirDegrees,DateUTC
12:53 AM,30.9,19.0,61,30.08,10.0,West,10.4,-,N/A,,Overcast,270,2012-11-24 05:53:00
1:53 AM,30.9,19.9,64,30.08,10.0,West,9.2,-,N/A,,Overcast,270,2012-11-24 06:53:00
2:53 AM,30.9,19.9,64,30.09,10.0,West,9.2,-,N/A,,Overcast,260,2012-11-24 07:53:00
3:53 AM,30.9,19.9,64,30.09,10.0,West,11.5,-,N/A,,Overcast,260,2012-11-24 08:53:00
4:42 AM,30.2,19.4,64,30.07,10.0,West,10.4,-,N/A,,Overcast,260,2012-11-24 09:42:00
4:53 AM,30.0,19.9,66,30.10,10.0,West,10.4,17.3,N/A,,Overcast,260,2012-11-24 09:53:00
5:23 AM,30.2,21.2,69,30.08,10.0,West,9.2,-,N/A,,Overcast,260,2012-11-24 10:23:00
5:53 AM,30.0,21.0,69,30.10,10.0,West,8.1,-,N/A,,Overcast,280,2012-11-24 10:53:00
6:53 AM,30.0,21.0,69,30.12,10.0,West,9.2,-,N/A,,Overcast,280,2012-11-24 11:53:00
7:53 AM,30.0,21.9,72,30.13,10.0,West,10.4,-,N/A,,Overcast,280,2012-11-24 12:53:00
8:01 AM,30.2,21.2,69,30.11,10.0,West,8.1,-,N/A,,Overcast,270,2012-11-24 13:01:00
8:53 AM,30.0,23.0,75,30.14,5.0,West,5.8,-,0.00,Snow,Light Snow,270,2012-11-24 13:53:00
9:53 AM,30.0,23.0,75,30.16,3.0,West,8.1,-,0.00,Snow,Light Snow,270,2012-11-24 14:53:00
10:21 AM,30.2,24.8,80,30.13,2.0,West,8.1,-,0.00,Snow,Light Snow,270,2012-11-24 15:21:00
10:53 AM,30.0,25.0,82,30.16,2.0,West,10.4,-,0.00,Snow,Light Snow,270,2012-11-24 15:53:00
11:04 AM,30.2,24.8,80,30.13,5.0,West,10.4,-,0.00,Snow,Light Snow,270,2012-11-24 16:04:00
11:53 AM,30.9,24.1,76,30.14,6.0,West,12.7,18.4,0.00,Snow,Light Snow,270,2012-11-24 16:53:00
12:53 PM,32.0,23.0,69,30.13,10.0,West,10.4,16.1,0.00,,Overcast,280,2012-11-24 17:53:00
1:13 PM,32.0,21.2,64,30.10,10.0,WNW,11.5,-,N/A,,Overcast,290,2012-11-24 18:13:00
1:53 PM,30.9,23.0,72,30.13,10.0,WNW,10.4,-,N/A,,Overcast,290,2012-11-24 18:53:00
2:53 PM,30.9,23.0,72,30.13,10.0,West,10.4,-,N/A,,Overcast,280,2012-11-24 19:53:00
3:53 PM,32.0,21.9,66,30.14,10.0,West,8.1,-,N/A,,Overcast,280,2012-11-24 20:53:00
4:53 PM,30.9,23.0,72,30.15,10.0,WNW,5.8,-,N/A,,Overcast,290,2012-11-24 21:53:00
5:53 PM,30.9,21.9,69,30.15,10.0,West,5.8,-,N/A,,Overcast,270,2012-11-24 22:53:00
6:20 PM,30.2,21.2,69,30.13,10.0,WNW,6.9,-,N/A,,Overcast,290,2012-11-24 23:20:00
6:53 PM,30.9,21.0,67,30.16,10.0,West,5.8,-,N/A,,Overcast,280,2012-11-24 23:53:00
7:19 PM,30.2,19.4,64,30.13,10.0,West,6.9,-,N/A,,Overcast,280,2012-11-25 00:19:00
7:53 PM,30.9,19.9,64,30.16,10.0,WNW,8.1,-,N/A,,Overcast,300,2012-11-25 00:53:00
8:53 PM,30.0,19.9,66,30.16,10.0,WNW,4.6,-,N/A,,Overcast,300,2012-11-25 01:53:00
9:05 PM,30.2,19.4,64,30.12,10.0,West,4.6,-,N/A,,Overcast,270,2012-11-25 02:05:00
9:53 PM,30.0,19.0,64,30.15,10.0,WNW,5.8,-,N/A,,Overcast,290,2012-11-25 02:53:00
10:53 PM,30.0,19.0,64,30.13,10.0,WSW,8.1,-,N/A,,Overcast,250,2012-11-25 03:53:00
11:53 PM,30.0,18.0,61,30.11,10.0,West,8.1,-,N/A,,Overcast,260,2012-11-25 04:53:00